UTA509 USTR-URMM

Flight info

Callsign UTA509
Flight time N/A
Altitude 340
Route BEPAR T448 BANAM T348 EKB T764 DILUP T173 EKRIM T764 UDATA T764 GITEK T691 UROBO R807 NIRGA A835 DEPSO
Aircraft B738/M-VGDW/C

Departure

Time 2026-04-25 15:21
Airport Roshchino International Airport (USTR)

Arrival

Time N/A
Airport Mineralnye Vody Airport (URMM)
Time Latitude Longitude Altitude Speed Heading
2026-04-25 15:06 57.18079 65.34801 340 ft 0 kts 45°
2026-04-25 15:13 57.18071 65.34786 340 ft 3 kts 44°
2026-04-25 15:13 57.18057 65.34760 334 ft 3 kts 44°
2026-04-25 15:14 57.18043 65.34734 340 ft 3 kts 50°
2026-04-25 15:14 57.18032 65.34705 337 ft 3 kts 79°
2026-04-25 15:14 57.18031 65.34685 337 ft 1 kts 133°
2026-04-25 15:14 57.18033 65.34682 337 ft 0 kts 135°
2026-04-25 15:17 57.18022 65.34694 340 ft 7 kts 156°
2026-04-25 15:17 57.17942 65.34604 339 ft 20 kts 225°
2026-04-25 15:18 57.17910 65.34383 355 ft 20 kts 301°
2026-04-25 15:18 57.18183 65.33849 336 ft 30 kts 315°
2026-04-25 15:18 57.18334 65.33590 339 ft 29 kts 316°
2026-04-25 15:19 57.18461 65.33319 336 ft 27 kts 297°
2026-04-25 15:19 57.18475 65.33210 334 ft 27 kts 273°
2026-04-25 15:19 57.18469 65.32666 331 ft 24 kts 268°
2026-04-25 15:19 57.18462 65.32368 341 ft 23 kts 273°
2026-04-25 15:20 57.18511 65.32107 349 ft 22 kts 317°
2026-04-25 15:20 57.18623 65.31917 355 ft 22 kts 318°
2026-04-25 15:20 57.18676 65.31698 356 ft 21 kts 239°
2026-04-25 15:20 57.18494 65.31318 362 ft 76 kts 229°
2026-04-25 15:21 57.17972 65.30242 374 ft 147 kts 227°
2026-04-25 15:21 57.17171 65.28634 712 ft 186 kts 226°
2026-04-25 15:21 57.16259 65.26807 1564 ft 193 kts 228°
2026-04-25 15:21 57.15525 65.24877 2741 ft 185 kts 242°
2026-04-25 15:22 57.15158 65.22544 3552 ft 196 kts 258°
2026-04-25 15:22 57.15114 65.19914 4067 ft 219 kts 270°
2026-04-25 15:22 57.15280 65.17055 4600 ft 229 kts 271°
2026-04-25 15:22 57.15433 65.13990 4873 ft 249 kts 270°
2026-04-25 15:23 57.15541 65.10782 5656 ft 251 kts 268°
2026-04-25 15:23 57.15604 65.07562 6488 ft 252 kts 267°
2026-04-25 15:23 57.15623 65.05414 6971 ft 254 kts 266°